Weather reports worldwide

Advertisment
Perpignan, France (7747): temperature & dewpoint: 20.03.2019 08:00:00 - 26.03.2019 08:00:00 (CET)Perpignan, France (7747): temperature 5cm: 20.03.2019 08:00:00 - 26.03.2019 08:00:00 (CET)Perpignan, France (7747): temperature -20cm & temperature -100cm: 20.03.2019 08:00:00 - 26.03.2019 08:00:00 (CET)Perpignan, France (7747): wind speed & gusts: 20.03.2019 08:00:00 - 26.03.2019 08:00:00 (CET)Perpignan, France (7747): wind direction: 20.03.2019 08:00:00 - 26.03.2019 08:00:00 (CET)Perpignan, France (7747): reduced air pressure: 20.03.2019 08:00:00 - 26.03.2019 08:00:00 (CET)Perpignan, France (7747): visibility: 20.03.2019 08:00:00 - 26.03.2019 08:00:00 (CET)Perpignan, France (7747): precipitation: 20.03.2019 08:00:00 - 26.03.2019 08:00:00 (CET)
Date & Time tt [°C] td [°C] tt 5cm [°C] tt -20cm [°C] tt -100cm [°C] ff [km/h] ff [kn] fx [km/h] fx [kn] dd ppp [hPa] vv [km] rr [mm]
26.03.2019 08:00:00 10,3 -3,4 9,0 14,7 14,4 34 18 62 34 NW 1024,0 19 0,0
26.03.2019 07:00:00 9,2 -4,8 8,6 14,9 14,4 32 17 68 37 NW 1023,2 26 0,0
26.03.2019 06:00:00 9,6 -5,1 8,6 15,1 14,4 45 24 72 39 NW 1022,6 60 0,0
26.03.2019 05:00:00 9,8 -5,0 8,5 15,3 14,4 40 21 62 34 NW 1022,5 60 0,0
26.03.2019 04:00:00 9,8 -3,5 8,6 15,5 14,4 26 14 56 30 NW 1023,0 60 0,0
26.03.2019 03:00:00 9,9 -3,4 8,7 15,7 14,4 27 15 56 30 NW 1022,8 60 0,0
26.03.2019 02:00:00 10,2 -3,5 9,0 15,9 14,4 32 18 59 32 NW 1023,1 60 0,0
26.03.2019 01:00:00 11,1 -3,1 10,3 16,1 14,4 29 16 52 28 NW 1023,1 60 0,0
26.03.2019 00:00:00 12,0 -2,3 11,2 16,2 14,4 29 16 56 31 NNW 1022,6 60 0,0
25.03.2019 23:00:00 13,4 0,4 12,6 16,4 14,4 30 16 61 33 NNW 1021,8 58 0,0
25.03.2019 22:00:00 14,6 0,8 13,7 16,6 14,3 30 16 67 36 NW 1021,1 59 0,0
25.03.2019 21:00:00 14,9 0,7 13,9 16,7 14,4 37 20 77 41 NW 1020,1 51 0,0
25.03.2019 20:00:00 15,0 1,8 14,0 16,8 14,3 35 19 63 34 NW 1019,1 30 0,0
25.03.2019 19:00:00 15,2 2,4 14,4 16,8 14,3 35 19 69 37 NW 1019,2 20 0,0
25.03.2019 18:00:00 16,1 1,8 16,8 16,7 14,3 43 23 73 40 NW 1019,4 11 0,0
25.03.2019 17:00:00 17,3 1,7 19,6 16,5 14,3 39 21 74 40 NW 1019,1 10 0,0
25.03.2019 16:00:00 18,0 1,5 21,4 16,2 14,3 39 21 72 39 NW 1019,4 10 0,0
25.03.2019 15:00:00 18,0 1,0 20,8 16,0 14,3 43 23 74 40 NNW 1019,2 13 0,0
25.03.2019 14:00:00 18,4 2,2 22,2 15,6 14,3 23 12 69 37 NW 1020,2 17 0,0
25.03.2019 13:00:00 18,0 3,1 23,9 15,4 14,2 28 15 69 37 WNW 1020,2 19 0,0
25.03.2019 12:00:00 17,4 4,3 22,3 15,2 14,3 32 18 62 34 WNW 1021,1 19 0,0
25.03.2019 11:00:00 16,6 5,2 21,7 15,2 14,2 31 17 55 30 NW 1021,8 18 0,0
25.03.2019 10:00:00 16,2 4,9 20,4 15,2 14,2 33 18 57 31 NW 1021,8 34 0,0
25.03.2019 09:00:00 15,7 4,4 17,8 15,3 14,2 28 15 48 26 NW 1021,4 43 0,0
25.03.2019 08:00:00 15,0 1,8 13,5 15,4 14,2 25 14 46 25 NW 1021,5 29 0,0
25.03.2019 07:00:00 14,4 0,2 12,7 15,6 14,2 30 16 46 25 NW 1021,0 42 0,0
25.03.2019 06:00:00 14,4 1,0 10,4 15,7 14,1 24 13 36 19 WNW 1021,2 38 0,0
25.03.2019 05:00:00 14,6 1,8 11,7 15,9 14,2 20 11 34 18 WNW 1021,2 37 0,0
25.03.2019 04:00:00 15,2 1,7 12,4 16,1 14,2 23 12 36 19 WNW 1021,3 45 0,0
25.03.2019 03:00:00 15,3 1,4 12,5 16,2 14,1 10 6 22 12 NW 1021,6 51 0,0
25.03.2019 02:00:00 15,7 1,4 11,9 16,4 14,1 12 6 28 15 NW 1021,8 59 0,0
25.03.2019 01:00:00 16,6 1,5 14,1 16,5 14,1 17 9 37 20 NW 1022,0 60 0,0
25.03.2019 00:00:00 16,9 1,3 14,7 16,6 14,1 25 14 34 18 W 1022,1 60 0,0
24.03.2019 23:00:00 17,8 0,9 16,0 16,8 14,1 22 12 40 22 WNW 1021,9 60 0,0
24.03.2019 22:00:00 19,0 1,0 17,3 16,9 14,1 22 12 46 25 NW 1021,9 60 0,0
24.03.2019 21:00:00 19,3 -0,2 17,4 17,0 14,1 21 11 49 26 NW 1021,7 60 0,0
24.03.2019 20:00:00 20,5 0,8 18,6 16,9 14,1 21 11 33 18 NW 1021,4 60 0,0
24.03.2019 19:00:00 21,6 0,7 20,0 16,8 14,1 14 8 37 20 NNW 1021,1 60 0,0
24.03.2019 18:00:00 23,4 0,5 24,0 16,6 14,1 19 11 37 20 NW 1020,6 44 0,0
24.03.2019 17:00:00 24,2 1,1 27,1 16,3 14,0 9 5 27 15 N 1020,6 55 0,0
24.03.2019 16:00:00 22,8 5,7 27,1 15,9 14,1 13 7 28 15 SE 1021,0 52 0,0
24.03.2019 15:00:00 23,4 7,1 27,4 15,4 14,1 16 8 27 14 ESE 1021,3 50 0,0
24.03.2019 14:00:00 24,1 6,4 28,6 14,9 14,0 13 7 26 14 SE 1021,7 51 0,0
24.03.2019 13:00:00 23,9 6,2 30,4 14,5 14,0 11 6 22 12 ESE 1022,7 57 0,0
24.03.2019 12:00:00 23,0 5,9 29,3 14,2 14,0 16 8 27 14 E 1023,5 60 0,0
24.03.2019 11:00:00 22,9 3,4 30,0 14,1 14,1 12 6 23 13 NNW 1023,6 60 0,0
24.03.2019 10:00:00 21,0 3,2 27,5 14,1 14,0 11 6 21 11 NNW 1023,7 40 0,0
24.03.2019 09:00:00 19,2 2,5 22,9 14,3 14,0 0 0 7 4 N 1023,8 55 0,0
24.03.2019 08:00:00 14,2 2,1 9,2 14,4 13,9 3 1 15 8 SW 1023,8 56 0,0
24.03.2019 07:00:00 11,8 0,8 3,9 14,6 14,0 12 7 17 9 W 1023,6 48 0,0
24.03.2019 06:00:00 10,6 0,9 3,8 14,8 14,0 6 3 19 10 W 1023,4 50 0,0
24.03.2019 05:00:00 11,2 1,4 6,7 14,9 14,0 13 7 19 10 W 1023,3 35 0,0
24.03.2019 04:00:00 11,8 1,7 5,5 15,1 13,9 10 6 16 9 W 1023,4 35 0,0
24.03.2019 03:00:00 10,2 1,8 4,5 15,3 14,0 10 6 12 7 W 1023,7 35 0,0
24.03.2019 02:00:00 12,4 1,7 4,8 15,5 13,9 0 0 12 7 N 1024,0 60 0,0
24.03.2019 01:00:00 13,8 2,1 7,4 15,6 13,9 6 3 13 7 WSW 1023,7 37 0,0
24.03.2019 00:00:00 15,9 1,9 11,3 15,8 13,9 10 5 25 14 W 1023,8 30 0,0
23.03.2019 23:00:00 17,1 2,3 12,5 15,9 13,9 15 8 21 12 WSW 1023,7 30 0,0
23.03.2019 22:00:00 16,4 2,4 10,6 16,0 13,9 10 5 27 15 SW 1023,6 39 0,0
23.03.2019 21:00:00 19,7 1,6 17,0 16,1 13,9 17 9 26 14 NW 1023,1 31 0,0
23.03.2019 20:00:00 20,4 0,2 16,5 16,1 13,9 14 8 23 12 NNW 1022,6 60 0,0
23.03.2019 19:00:00 22,2 -1,2 19,8 15,9 13,9 16 8 23 13 NW 1022,4 36 0,0
23.03.2019 18:00:00 24,4 -1,5 25,5 15,6 13,9 16 8 30 16 NNW 1022,1 38 0,0
23.03.2019 17:00:00 25,2 -1,6 28,3 15,3 13,9 16 9 32 17 NNW 1022,2 42 0,0
23.03.2019 16:00:00 25,7 -1,2 29,9 14,8 13,9 17 9 33 18 NNW 1022,5 60 0,0
23.03.2019 15:00:00 25,7 0,3 29,0 14,4 13,9 21 11 33 18 N 1023,0 60 0,0
23.03.2019 14:00:00 25,3 1,4 30,2 13,9 13,9 13 7 25 13 NNW 1023,7 60 0,0
23.03.2019 13:00:00 24,8 2,8 30,7 13,5 13,9 13 7 34 19 NW 1024,5 60 0,0
23.03.2019 12:00:00 23,7 2,5 27,5 13,3 13,9 14 8 27 15 NNW 1025,4 60 0,0
23.03.2019 11:00:00 21,8 3,9 25,8 13,2 13,8 19 10 29 16 NW 1025,9 25 0,0
23.03.2019 10:00:00 19,7 3,8 23,2 13,1 13,9 15 8 29 16 NW 1026,2 22 0,0
23.03.2019 09:00:00 18,3 3,7 21,2 13,2 13,9 6 4 16 8 NW 1026,3 46 0,0
23.03.2019 08:00:00 13,9 3,1 9,5 13,3 13,9 0 0 16 8 N 1026,2 55 0,0
23.03.2019 07:00:00 11,8 2,0 8,9 13,5 13,9 11 6 21 11 WSW 1026,0 60 0,0
23.03.2019 06:00:00 11,7 1,9 8,0 13,6 13,8 15 8 24 13 W 1025,8 60 0,0
23.03.2019 05:00:00 11,4 1,9 5,7 13,8 13,9 11 6 17 9 WSW 1026,0 60 0,0
23.03.2019 04:00:00 10,6 1,7 5,9 13,9 13,8 10 5 17 9 WSW 1026,4 60 0,0
23.03.2019 03:00:00 10,1 2,2 4,5 14,1 13,9 11 6 14 8 W 1026,7 60 0,0
23.03.2019 02:00:00 9,8 1,7 3,5 14,3 13,9 6 3 16 8 WNW 1027,0 60 0,0
23.03.2019 01:00:00 11,5 1,7 8,2 14,5 13,9 13 7 19 10 W 1026,8 60 0,0
23.03.2019 00:00:00 11,4 1,1 3,6 14,7 13,9 13 7 16 9 WSW 1027,0 60 0,0
22.03.2019 23:00:00 11,3 0,4 4,5 14,9 13,8 6 3 14 7 W 1027,1 60 0,0
22.03.2019 22:00:00 11,1 -0,7 4,5 15,1 13,9 11 6 14 7 W 1027,1 60 0,0
22.03.2019 21:00:00 10,6 -0,6 4,4 15,1 13,8 8 4 10 5 W 1027,1 60 0,0
22.03.2019 20:00:00 13,3 0,3 5,3 15,2 13,9 0 0 6 4 N 1026,8 45 0,0
22.03.2019 19:00:00 15,8 0,0 12,3 15,1 13,9 6 3 14 8 ENE 1026,6 52 0,0
22.03.2019 18:00:00 18,6 -0,3 19,8 14,8 13,8 7 4 21 11 E 1026,4 50 0,0
22.03.2019 17:00:00 20,0 -3,0 23,2 14,5 13,9 11 6 24 13 ESE 1026,2 39 0,0
22.03.2019 16:00:00 20,3 -1,0 24,7 14,0 13,8 12 7 21 12 E 1026,5 45 0,0
22.03.2019 15:00:00 20,2 0,6 23,3 13,5 13,8 10 6 22 12 ESE 1027,2 23 0,0
22.03.2019 14:00:00 20,0 0,4 25,3 13,1 13,8 13 7 23 13 ESE 1027,9 21 0,0
22.03.2019 13:00:00 19,6 2,4 25,7 12,7 13,8 9 5 17 9 ESE 1028,7 20 0,0
22.03.2019 12:00:00 18,8 1,7 25,8 12,4 13,8 4 2 14 8 E 1029,1 19 0,0
22.03.2019 11:00:00 17,1 1,1 24,8 12,3 13,8 5 3 9 5 NNE 1029,4 21 0,0
22.03.2019 10:00:00 16,0 1,3 21,9 12,3 13,9 3 1 5 3 S 1029,5 25 0,0
22.03.2019 09:00:00 12,1 1,4 14,9 12,5 13,8 2 1 4 2 N 1029,4 55 0,0
22.03.2019 08:00:00 6,9 0,8 -0,2 12,6 13,8 2 1 9 5 WSW 1029,4 59 0,0
22.03.2019 07:00:00 3,6 -0,6 -1,6 12,8 13,8 5 3 8 4 SW 1029,1 59 0,0
22.03.2019 06:00:00 4,5 -0,7 -1,3 13,0 13,9 3 1 7 4 N 1028,5 59 0,0
22.03.2019 05:00:00 5,2 -0,4 -1,0 13,2 13,8 6 3 7 4 WSW 1028,4 60 0,0
22.03.2019 04:00:00 5,5 -0,1 -0,6 13,4 13,8 4 2 11 6 WSW 1028,4 60 0,0
22.03.2019 03:00:00 6,0 0,1 -0,7 13,6 13,8 4 2 8 5 WNW 1028,2 60 0,0
22.03.2019 02:00:00 6,2 -0,1 0,2 13,9 13,8 3 2 11 6 N 1028,7 60 0,0
22.03.2019 01:00:00 7,5 0,5 1,0 14,1 13,8 9 5 11 6 W 1028,4 60 0,0
22.03.2019 00:00:00 8,9 0,1 2,5 14,3 13,8 6 3 14 8 WSW 1028,5 60 0,0
21.03.2019 23:00:00 10,0 0,8 5,3 14,4 13,8 10 5 17 9 WSW 1028,3 60 0,0
21.03.2019 22:00:00 8,8 0,7 5,0 14,6 13,8 11 6 16 9 W 1028,4 56 0,0
21.03.2019 21:00:00 8,8 -0,3 3,5 14,8 13,8 11 6 14 7 W 1028,3 50 0,0
21.03.2019 20:00:00 9,7 -0,5 3,0 14,8 13,8 8 4 10 5 W 1028,0 48 0,0
21.03.2019 19:00:00 12,7 -0,9 8,7 14,7 13,8 6 3 11 6 S 1027,7 49 0,0
21.03.2019 18:00:00 14,3 0,5 15,8 14,6 13,8 6 3 16 9 SE 1027,4 39 0,0
21.03.2019 17:00:00 15,1 2,6 18,5 14,3 13,8 9 5 21 11 SE 1027,4 51 0,0
21.03.2019 16:00:00 15,7 0,7 20,5 13,9 13,8 9 5 21 11 ESE 1027,7 43 0,0
21.03.2019 15:00:00 16,0 0,5 19,1 13,4 13,8 10 5 24 13 E 1028,0 40 0,0
21.03.2019 14:00:00 15,5 -0,3 20,9 13,0 13,8 15 8 34 18 ESE 1028,7 41 0,0
21.03.2019 13:00:00 15,9 0,4 22,2 12,7 13,8 18 10 38 21 E 1029,1 41 0,0
21.03.2019 12:00:00 16,2 -0,1 23,2 12,4 13,8 18 10 27 15 ENE 1029,1 60 0,0
21.03.2019 11:00:00 16,3 -0,9 23,8 12,3 13,8 5 3 18 10 E 1029,3 52 0,0
21.03.2019 10:00:00 14,6 -1,1 20,2 12,3 13,8 4 2 21 11 E 1029,6 20 0,0
21.03.2019 09:00:00 12,7 -2,0 15,4 12,5 13,8 13 7 20 11 NW 1029,4 53 0,0
21.03.2019 08:00:00 9,3 -1,2 -0,5 12,7 13,8 9 5 15 8 NW 1029,2 60 0,0
21.03.2019 07:00:00 4,8 -1,9 -1,8 12,9 13,8 6 4 12 6 WSW 1028,9 60 0,0
21.03.2019 06:00:00 5,0 -2,1 -1,6 13,1 13,8 5 3 10 5 SSW 1028,6 60 0,0
21.03.2019 05:00:00 5,8 -2,8 -1,2 13,2 13,8 3 2 14 7 WNW 1028,6 60 0,0
21.03.2019 04:00:00 9,3 -2,3 2,1 13,4 13,8 10 5 14 8 NNW 1028,5 60 0,0
21.03.2019 03:00:00 9,3 -2,7 5,9 13,6 13,8 9 5 17 9 NW 1028,9 60 0,0
21.03.2019 02:00:00 9,6 -2,4 5,5 13,8 13,8 8 5 14 8 NNW 1029,4 60 0,0
21.03.2019 01:00:00 8,4 -2,3 5,8 13,9 13,8 6 3 22 12 NNW 1029,5 60 0,0
21.03.2019 00:00:00 10,9 -2,2 8,3 14,1 13,8 15 8 24 13 NW 1029,6 60 0,0
20.03.2019 23:00:00 11,1 -2,0 9,3 14,2 13,8 17 9 37 20 NW 1029,5 60 0,0
20.03.2019 22:00:00 11,9 -2,0 10,3 14,3 13,8 22 12 40 22 NW 1029,4 60 0,0
20.03.2019 21:00:00 12,3 -2,0 10,9 14,4 13,8 26 14 48 26 NW 1029,1 60 0,0
20.03.2019 20:00:00 12,8 -2,7 11,2 14,5 13,8 29 16 48 26 NW 1028,6 60 0,0
20.03.2019 19:00:00 13,6 -2,4 12,4 14,4 13,8 29 16 52 28 NW 1028,0 60 0,0
20.03.2019 18:00:00 14,8 -2,6 15,9 14,2 13,8 28 15 45 25 NW 1027,7 53 0,0
20.03.2019 17:00:00 15,7 -3,3 18,4 14,0 13,8 28 15 47 25 NW 1027,4 47 0,0
20.03.2019 16:00:00 16,2 -4,4 20,0 13,6 13,8 24 13 40 22 NNW 1027,7 35 0,0
20.03.2019 15:00:00 16,0 -4,0 19,4 13,2 13,8 22 12 42 23 NW 1028,0 49 0,0
20.03.2019 14:00:00 15,7 -3,8 20,7 12,9 13,8 20 11 38 20 NW 1028,7 38 0,0
20.03.2019 13:00:00 15,4 -3,5 20,6 12,6 13,8 22 12 43 23 NNW 1029,2 43 0,0
20.03.2019 12:00:00 14,5 -2,5 19,7 12,4 13,8 27 15 51 28 N 1029,7 51 0,0
20.03.2019 11:00:00 13,2 -2,7 18,4 12,3 13,8 26 14 50 27 NNW 1030,0 46 0,0
20.03.2019 10:00:00 12,2 -2,1 16,9 12,4 13,8 23 12 34 19 NW 1030,2 44 0,0
20.03.2019 09:00:00 10,8 -0,4 12,7 12,5 13,8 18 10 32 18 NW 1030,1 55 0,0
20.03.2019 08:00:00 8,9 0,3 3,2 12,6 13,8 18 10 28 15 NW 1029,7 48 0,0

tt = temperature
td = dewpoint
tt 5cm = temperature 5cm
tt -20cm = temperature -20cm
tt -100cm = temperature -100cm
ff = wind speed
fx = gusts
dd = wind direction
ppp = reduced air pressure
vv = visibility
rr = precipitation

Next stations